STARLINK-32486, 61854

Orbit data source: Space-Track

STARLINK-32486, 61854 is a payload satellite owned by SpaceX/Seattle (US) in LEO that was launched on Thu, 07 Nov 2024 UTC via an FALCON 9 launch vehicle from the Air Force Eastern Test Range (AFETR). Payload-class satellites include a variety of spacecraft equipped with specific instruments for various scientific and technological missions. These include communications satellites like Starlink; space stations such as the ISS; scientific satellites like the Hubble; Earth observation satellites from companies like Planet Labs, Umbra, and HawkEye 360; GPS; miniature CubeSats for education and research; and military/defense satellites.

Loading next visibility...
Identifier
61854, 2024-202K
Orbit
LEO
Country
Flag of USUS
Related business
Manufacturer
SpaceX/Seattle
Mission
Operational Commercial Communications
Bus & Motor
STARLINK V2M, Unknown motor
Mass
730 kg wet, ~700 kg dry
Launch date (UTC)
2024-11-07 (10 months ago)
Launch vehicle
FALCON 9
Launch site
Air Force Eastern Test Range (AFETR)
Object type
Payload
Rocket body
Debris
Shape & HBR
Box + 2 Pan, 14.5 m
Radar Cross Section
33.884 m², Large (>1 m²)

Expand to show TLE details & history
Last TLE update: 1 day ago

TLE from 1 day ago
0 STARLINK-32486
1 61854U 24202K   25260.04557213 -.00002543  00000-0 -82986-4 0  9999
2 61854  43.0014 138.4145 0000631 264.2550  95.8229 15.27559402 48780
Epoch: 2025-09-17T01:05Z
TLE epoch observation values (Epoch: 2025-09-17T01:05:37.432Z)
Latitude
-0.00005°
Longitude
125.78133°
Altitude
482.93 km
Speed
7.626 km/s
True Right ascension
09h 13m 39s
True Declination
0° 00' 00"
Sunlit
Object was in daylight at epoch
Visualization orbit readout
Latitude
Unknown
Longitude
Unknown
Altitude
Unknown
Speed
Unknown
Apparent Right ascension
Unknown
Apparent Declination
Unknown
Sunlit
N/A
Visualization observer readout
Local Sidereal Time
23:56:10
Azimuth
Unknown
Elevation
Unknown
Doppler factor
Unknown
Orbital elements
Apogee altitude
485.489 km
Perigee altitude
484.623 km
Semi-major axis
6,863.193 km
Eccentricity
0.00006
Inclination
43.0014°
RAAN
138.4145°
Arg. of periapsis
264.255°
True anomaly
95.83009°
Mean anomaly
95.8229°
Eccentric anomaly
95.8265°
Mean motion
3.81728 °/min
Orbital period
94.31 mins
BSTAR
-0.000082986
Loading maneuver chart data...
Computing Atmospheric mass density...
Loading historical data...
Loading historical data...
Loading historical data...
Loading historical data...
Loading historical data...
Loading historical data...
Loading historical data...

Documentation

Showing up to 5 results
|